Retour au catalogue

OPS 9441

DSCS 2-11

ActifMilitaireGEO
NORAD 11144·PAYLOAD·🇺🇸 United States

Lancé Dec 14, 1978 depuis Cape Canaveral Space Force Station

Loading…

TLE

FraisSource: Space-Track

Époque: Sep 14, 2026, 15:00 UTC

1 11144U 78113A   26257.62567931 -.00000146  00000-0  00000-0 0  9994
2 11144  10.6071 314.4527 0025594 208.8946 204.4746  0.94032797112390

Suivez OPS 9441 en temps réel avec AllMySat

Download on the App Store